STUDSAT

Satellite information

Favourite Embed

Satellite Type and Status

PAYLOADIN ORBIT

Key statistics

Satellite STUDSAT at a glance.

Uptime

5585

Days in orbit

Revolutions

≈ 15.0

Per day

Orbit

SSO

Sun Synchronous Orbit

Inclination

98.1

Latest

Satellite identification and parameters

Extended collection of information and parameters for STUDSAT.

Object identification

Identified? True

Debris? False

Object name: STUDSAT

International designator: 2010-035B

Object number (NORAD): 36796

Object ID (CCSDS): 36796

Country: INDIA (IND)

Current information (Y/N): Y

RCS size: SMALL

Orbital parameters

Period: 95.857 minutes

Inclination: 98.1105 deg

SMA: 6938.155 km

Apoapsis: 568.779 km

Periapsis: 551.26 km

RAAN: 189.8976 deg

Eccentricy: 0.00126252

Argument of periapsis: 95.708 deg

Mean anomaly: 264.5583 deg

Mean motion: 15.02231273 rev/day

Mean motion (dot): 0.00006759 rev/day2

B* drag term: 0.0005166358 1/REarth

Two-line elements (TLE)

Creation date: Oct. 26, 2025, 2:54 a.m.

Reference frame: TEME

Reference center: EARTH

Epoch: Oct. 25, 2025, 11:28 p.m. UTC

TLE line 0: 0 STUDSAT

TLE line 1: 1 36796U 10035B 25298.97823890 .00006759 00000-0 51664-3 0 9994

TLE line 2: 2 36796 98.1105 189.8976 0012625 95.7080 264.5583 15.02231273829952

Live tracking on map

Real-time ground track for satellite STUDSAT.

In-orbit conjunctions

There are no conjunctions computed for STUDSAT, at the moment. Check back to stay up to date, as we update our databases every day.

Go to all conjunctions

Associated space launch

Cartosat-2B is fourth of Cartosat series of Earth observation satellites to be deployed in sun-synchronous orbit. Its main purpose is to collect high resolution imagery for cartography purposes. Cartosat-2B was launched along with several small satellites for Algeria, Canada and Switzerland.

STUDSAT was lifted into orbit during the mission ‘PSLV-CA | Cartosat-2B, AlSat-2A, StudSat, AISSat-1, TIsat-1’, on board a PSLV space rocket.

The launch took place on July 12, 2010, 3:52 a.m. from Satish Dhawan Space Centre First Launch Pad.

For more information about the launch, click the button.

Launch to space PSLV-CA | Cartosat-2B, AlSat-2A, StudSat, AISSat-1, TIsat-1
PSLV-CA | Cartosat-2B, AlSat-2A, StudSat, AISSat-1, TIsat-1

Agency: N/A

Status: Launch Successful

Launch date: July 12, 2010, 3:52 a.m. UTC

Rocket: PSLV

Launch pad: Satish Dhawan Space Centre First Launch Pad

Location: Satish Dhawan Space Centre, India

...

Latest news about this satellite

There are no fresh news available about this satellite. Check back as we update our databases every day.


Newsletter sign-up

Weekly statistics, charts and insights to help you stay on top of the space industry.